Find Starlink 5193

NORAD ID: 54095 Int'l Des: 2022-136 Owner: SPXS Country: US Constellation: starlink operational
LEOCIRCULAR

实时位置

正在加载3D地球...

关于 Starlink 5193

正在加载描述...

即将过境

Passes for default location (London). Set your location on the main map for personalized predictions.

高度历史

Loading altitude history...

两行轨道根数

1 54095U 22136AW 26104.49210821 -.00000405 00000-0 -73544-5 0 9996
2 54095 53.2167 173.0689 0000997 84.2102 275.9004 15.08834898192390
Epoch: Apr 14, 2026 • Age: 11 hours

当前状态

高度 540.6 km
速度 7.59 km/s
星下点 -0.31°S, 16.42°W
发射日期 Oct 20, 2022
运行时间 3.4 years
类型 internet

技术详情

分类 Payload
质量 305.00 kg
干质量 290.00 kg
总质量 305.00 kg
长度 0.20 m
直径 2.80 m
跨度 9.00 m
形状 Box + pan
制造商 SPXS
平台类型 Starlink
阶段状态 In Orbit
所有者/国家 SPXS/US

Most Searched